TimeEET,TemperatureF,Dew PointF,Humidity,Sea Level PressureIn,VisibilityMPH,Wind Direction,Wind SpeedMPH,Gust SpeedMPH,PrecipitationIn,Events,Conditions,WindDirDegrees,DateUTC
12:00 AM,68.0,64.4,88,29.98,6.2,East,2.3,-,N/A,,Scattered Clouds,90,2013-09-26 22:00:00
1:00 AM,68.0,64.4,88,29.98,6.2,East,2.3,-,N/A,,Scattered Clouds,90,2013-09-26 23:00:00
2:00 AM,68,64,82,29.96,6,Calm,Calm,,,,Partly Cloudy,,2013-09-27 00:00:00
2:00 AM,68.0,64.4,88,29.95,6.2,Calm,Calm,-,N/A,,Scattered Clouds,0,2013-09-27 00:00:00
3:00 AM,68.0,64.4,88,29.95,6.2,Calm,Calm,-,N/A,,Scattered Clouds,0,2013-09-27 01:00:00
4:00 AM,66.2,64.4,94,29.95,6.2,Calm,Calm,-,N/A,,Scattered Clouds,0,2013-09-27 02:00:00
5:00 AM,68.0,64.4,88,29.95,-9999.0,Calm,Calm,-,N/A,,Clear,0,2013-09-27 03:00:00
7:00 AM,73.4,66.2,78,29.95,-9999.0,SW,2.3,-,N/A,,Clear,220,2013-09-27 05:00:00
8:00 AM,75,66,67,29.96,6,SW,2.3,,,,Scattered Clouds,230,2013-09-27 06:00:00
8:00 AM,75.2,66.2,73,29.95,6.2,SW,2.3,-,N/A,,Partly Cloudy,230,2013-09-27 06:00:00
9:00 AM,78.8,66.2,65,29.98,6.2,North,9.2,-,N/A,,Partly Cloudy,350,2013-09-27 07:00:00
10:00 AM,82.4,64.4,54,29.98,6.2,NW,9.2,-,N/A,,Partly Cloudy,320,2013-09-27 08:00:00
11:00 AM,82.4,64.4,54,29.95,6.2,NNW,10.4,-,N/A,,Partly Cloudy,330,2013-09-27 09:00:00
12:00 PM,82.4,64.4,54,29.95,6.2,NW,9.2,-,N/A,,Partly Cloudy,320,2013-09-27 10:00:00
1:00 PM,82.4,64.4,54,29.95,6.2,NW,9.2,-,N/A,,Partly Cloudy,320,2013-09-27 11:00:00
2:00 PM,82,65,46,30.12,6,NW,9.2,,,,Partly Cloudy,310,2013-09-27 12:00:00
2:00 PM,82.4,64.4,54,29.92,6.2,NW,9.2,-,N/A,,Scattered Clouds,310,2013-09-27 12:00:00
3:00 PM,82.4,64.4,54,29.92,6.2,NW,13.8,-,N/A,,Scattered Clouds,320,2013-09-27 13:00:00
4:00 PM,80.6,66.2,61,29.92,6.2,NW,10.4,-,N/A,,Scattered Clouds,310,2013-09-27 14:00:00
5:00 PM,80.6,66.2,61,29.92,6.2,NW,11.5,-,N/A,,Scattered Clouds,310,2013-09-27 15:00:00
6:00 PM,78.8,64.4,61,29.92,6.2,NW,13.8,-,N/A,,Scattered Clouds,320,2013-09-27 16:00:00
7:00 PM,78.8,64.4,61,29.92,6.2,NNW,9.2,-,N/A,,Scattered Clouds,330,2013-09-27 17:00:00
8:00 PM,78,67,61,29.94,6,NW,9.2,,,,Partly Cloudy,310,2013-09-27 18:00:00
8:00 PM,78.8,68.0,69,29.92,6.2,NW,9.2,-,N/A,,Scattered Clouds,310,2013-09-27 18:00:00
9:00 PM,78.8,68.0,69,29.92,6.2,NW,9.2,-,N/A,,Partly Cloudy,320,2013-09-27 19:00:00
10:00 PM,77.0,66.2,69,29.92,6.2,NW,11.5,-,N/A,,Partly Cloudy,320,2013-09-27 20:00:00
11:00 PM,77.0,66.2,69,29.92,6.2,NW,11.5,-,N/A,,Partly Cloudy,320,2013-09-27 21:00:00